Voltar ao catálogo

NADEZHDA 7

AtivoComunicaçõesPO
NORAD 27534·PAYLOAD·🇷🇺 Russia

Lançado Sep 26, 2002 de Plesetsk Cosmodrome

Loading…

Próximas Passagens (próximas 24 horas)

TLE

AtualizadoSource: Space-Track

Época: Sep 14, 2026, 00:41 UTC

1 27534U 02046A   26257.02894094  .00000033  00000-0  18927-4 0  9998
2 27534  82.9305 265.1016 0037579  86.1343 302.4752 13.72968735200755

Acompanhe NADEZHDA 7 em tempo real com AllMySat

Download on the App Store